Regional Weather Roundup
Issued by NWS Newport/Morehead, NC

Current Version | Previous Version | Graphics & Text | Print | Product List | Glossary Off
Versions: 1 2 3 4 5 6 7 8 9 10 11 12 13 14 15 16 17 18 19 20 21 22 23 24 25 26 27 28 29 30 31 32 33 34 35 36 37 38 39 40 41 42 43 44 45 46 47 48 49 50

000
ASUS42 KMHX 210013
RWRMHX
WEATHER ROUNDUP FOR EASTERN NORTH CAROLINA
NATIONAL WEATHER SERVICE NEWPORT/MOREHEAD CITY NC
800 PM EDT FRI OCT 20 2017

NOTE: "FAIR" INDICATES FEW OR NO CLOUDS BELOW 12,000 FEET
WITH NO SIGNIFICANT WEATHER AND/OR OBSTRUCTIONS TO VISIBILITY

NCZ015>017-031-032-045>047-102-103-210100-
NORTH COAST

CITY           SKY/WX    TMP DP  RH WIND       PRES   REMARKS
EDENTON        CLEAR     63  59  86 CALM      30.22R
ELIZABETH CITY CLEAR     62  58  86 CALM      30.21R
KITTY HAWK     CLEAR     62  57  82 CALM      30.20R
MANTEO         CLEAR    N/A N/A N/A CALM      30.21S

$$

NCZ045>047-081-094-103-104-210100-
CENTRAL COAST

CITY           SKY/WX    TMP DP  RH WIND       PRES   REMARKS
FRISCO         CLEAR     60  57  89 NE3       30.21R

$$

NCZ095-097-098-100-101-210100-
SOUTHERN COAST

CITY           SKY/WX    TMP DP  RH WIND       PRES   REMARKS
BEAUFORT       CLEAR     61  57  87 CALM      30.21R
CEDAR ISLAND   NOT AVBL
JACKSONVILLE   CLEAR     66  59  78 CALM      30.20R
PINEY ISLAND     N/A    N/A N/A N/A S3        30.20R
WILMINGTON     CLEAR     62  56  80 CALM      30.21R


$$

NCZ011>013-027>030-043-044-078>080-089-090>093-098-210100-
COASTAL PLAIN

CITY           SKY/WX    TMP DP  RH WIND       PRES   REMARKS
AHOSKIE        CLEAR     59  56  89 CALM      30.22R
CLINTON        CLEAR     64  56  73 CALM      30.21R
ELIZABETHTOWN  NOT AVBL
GOLDSBORO      CLEAR     62  53  72 CALM      30.19R
GREENVILLE     CLEAR     59  54  82 CALM      30.22R
HAVELOCK       NOT AVBL
KENANSVILLE    CLEAR     59  52  77 CALM      30.21R
KINSTON        CLEAR     59  52  77 CALM      30.22R
NEW BERN       CLEAR     61  57  87 CALM      30.22R
RICHLANDS      CLEAR     62  57  83 CALM      30.21R
ROCKY MOUNT    CLEAR     58  57  97 CALM      30.22R
WASHINGTON     CLEAR     63  57  82 CALM      30.21R
WHITEVILLE     CLEAR     64  57  80 CALM      30.20R

$$

AMZ130-135-150-152-154-156-158-170-250-252-270-ANZ085-086-088-633-658-670-210100-
MARINE OBSERVATIONS

STATION/POSITION TIME  TEMP    WIND        PRES    WAVE   SWELL
                       AIR SEA DIR/SP/G            HT/PER HT/PER
                 (UTC) (F)     (DEG/KT/KT) (MB)    (FT/S) (FT/S)
CHESAPEAKE LIGHT NOT AVBL
64 E VA BEACH    2350   67 68   10/  4/  6 1023.2    2/ 8   2/ 8
DUCK             2342   68 70  120/  1/  2 1022.4
2 E DUCK         0000      70                N/A     2/ 8
OREGON INLET     2342   67 69  360/  3/  3 1022.7
13E OREGON INLT  2348      72                N/A     3/ 8   2/ 8
HATTERAS CG      2342   69 71   40/  2/  3 1022.8
DIAMOND BUOY     2350   73 81   10/  4/  6 1022.6    2/ 8   2/ 8
CAPE LOOKOUT     0000   71     130/  2/  3 1022.6
BEAUFORT LAB     2342   69 72  130/  2/  3 1022.9
30 SE NEW RVR IN 2308   72     140/  2/  6 1022.3
30 SE NEW RVR IN NOT AVBL
27 SE WRIGHTSVLE 2308   73 76  140/  4/  8 1022.4
5 SE WRIGHTSVLE  2308   73 74  180/  8/ 12 1022.2
225 S CAPE HAT   2350   77 80   50/ 12/ 14 1021.2    5/ 9   3/ 9
41 SE CHARLESTON 2350   74 80   40/  6/  8 1022.2    3/ 9   3/ 9

$$




USA.gov is the U.S. government's official web portal to all federal, state and local government web resources and services.